Tracking 19562 objects as of 25-Mar-2019
HD Live streaming from Space Station
objects crossing your sky now

FENGYUN 1C DEB

Track FENGYUN 1C DEB now!
10-day predictions


NORAD ID: 35191
Int'l Code: 1999-025DNX
Perigee: 859.2 km
Apogee: 1,012.6 km
Inclination: 99.0 °
Period: 103.6 minutes
Semi major axis: 7306 km
RCS: 0.0133 m2 (small)
Launch date: May 10, 1999
Source: People's Republic of China (PRC)
Launch site: Taiyaun Space Center, China (TSC)

Note: This is SATELLITE DEBRIS
aabbcc
Your satellite tracking list
Your tracking list is empty




NASA's NSSDC Master Catalog

Two Line Element Set (TLE):
1 35191U 99025DNX 19082.31522200 +.00000051 +00000-0 +72532-4 0  9998
2 35191 099.0339 116.9184 0104930 054.5340 306.5557 13.89962526537672
Source of the keplerian elements: AFSPC